Content
SEND FEEDBACK

Daily
Averages
Monthly
Summary
Canada

SASKATOON, SASKATCHEWAN


Home > North America > Canada > Saskatchewan
Elevation: 1653 feet     Latitude: 52 10N     Longitude: 106 41W

WEATHER
 
SELECT A DAY
Number of Records: 190,708;   Date Range: 1/1/95 - 11/27/14
 
SHARE

PRINT THIS DATA

[ ← Previous Day ]
WEATHER ALMANAC - MARCH 22, 2013
[ Next Day → ]
[ °C ]   °F
Weather ElementAverageHighLow
Temperature15 °F17.6 °F (2:00 pm)12.2 °F (10:00 pm)
Dewpoint11.2 °F14 °F (6:00 pm)10.4 °F (12:19 am)
Humidity85 %93 % (6:00 pm)79 % (12:19 am)
Barometer30.15 in30.32 in (10:00 pm)30.03 in (2:00 am)
Wind Speed11.3 mph21.9 mph (12:19 am)
Wind Gust32.2 mph (12:19 am)
Weather ElementAverage
Visibility8.1 mi
Wind DirectionE (95 °)

Weather ElementTotal
Precipitation---
Heating Degree Days50.1 (Base 65)
Averaged from 28 records on March 22, 2013
WEATHER CONDITIONS BREAKOUT
WIND DIRECTION BREAKOUT
WEATHER BY HOUR - MARCH 22, 2013
[ °C ]   °F
Local TimeTemperatureDewpointHumidityBarometerVisibilityWind DirectionWind SpeedGust SpeedPrecipitationEventsConditions
12:19 AM15.8 °F10.4 °F79 %30.04 in10.0 miSE (140°)21.9 mph32.2 mphSnowLight Snow
1:00 AM14.0 °F10.4 °F86 %30.04 in10.0 miSE (140°)20.7 mph27.6 mphSnowLight Snow
2:00 AM14.0 °F10.4 °F86 %30.03 in15.0 miSSE (150°)19.6 mphSnowLight Snow
3:00 AM14.0 °F10.4 °F86 %30.04 in15.0 miSSE (150°)16.1 mph23.0 mphSnowLight Snow
3:16 AM14.0 °F10.4 °F86 %30.04 in15.0 miSSE (150°)17.3 mphSnowLow Drifting Snow
4:00 AM14.0 °F10.4 °F86 %30.04 in15.0 miSE (140°)13.8 mphOvercast
5:00 AM14.0 °F10.4 °F86 %30.04 in15.0 miSE (140°)13.8 mphSnowLow Drifting Snow
7:00 AM14.0 °F10.4 °F86 %30.06 in15.0 miSE (140°)12.7 mphSnowLow Drifting Snow
8:00 AM14.0 °F10.4 °F86 %30.07 in15.0 miSE (130°)10.4 mphOvercast
8:17 AM14.0 °F10.4 °F86 %30.07 in15.0 miESE (120°)11.5 mphSnowLight Snow
9:00 AM14.0 °F10.4 °F86 %30.08 in10.0 miESE (120°)12.7 mphSnowLight Snow Grains
9:48 AM14.0 °F10.4 °F86 %30.10 in2.5 miESE (110°)9.2 mphSnowLight Snow Grains
10:00 AM14.0 °F10.4 °F86 %30.11 in2.0 miESE (110°)8.1 mphSnowLight Snow
11:00 AM15.8 °F10.4 °F79 %30.12 in1.5 miESE (110°)8.1 mphSnowLight Snow
12:00 PM15.8 °F10.4 °F79 %30.14 in1.5 miENE (70°)5.8 mphSnowLight Snow
1:00 PM15.8 °F12.2 °F86 %30.16 in3.0 miENE (60°)9.2 mphSnowLight Snow
2:00 PM17.6 °F12.2 °F79 %30.17 in3.0 miENE (70°)10.4 mphSnowLight Snow
2:42 PM17.6 °F12.2 °F79 %30.18 in1.0 miENE (70°)9.2 mphSnowLight Snow
3:00 PM15.8 °F12.2 °F86 %30.19 in1.0 miENE (70°)10.4 mphSnowLight Snow
4:00 PM17.6 °F12.2 °F79 %30.21 in3.0 miENE (70°)10.4 mphSnowLight Snow
5:00 PM17.6 °F12.2 °F79 %30.24 in2.0 miNE (50°)10.4 mphSnowLight Snow
5:12 PM17.6 °F12.2 °F79 %30.25 in3.0 miNE (50°)10.4 mphSnowLight Snow
6:00 PM15.8 °F14.0 °F93 %30.26 in6.0 miNE (50°)9.2 mphSnowLight Snow
7:00 PM15.8 °F12.2 °F86 %30.27 in6.0 miNE (50°)8.1 mphSnowLight Snow
7:31 PM14.0 °F12.2 °F93 %30.28 in6.0 miNE (50°)8.1 mphSnowLight Snow
8:00 PM14.0 °F12.2 °F93 %30.29 in12.0 miNE (50°)6.9 mphSnowLight Snow
9:00 PM14.0 °F10.4 °F86 %30.31 in12.0 miENE (60°)6.9 mphSnowLight Snow
10:00 PM12.2 °F10.4 °F92 %30.32 in12.0 miNE (40°)5.8 mphIce Crystals
Hourly data recorded from CYXE, located miles away from Saskatoon, Saskatchewan







STORIES FROM OUR PARTNERS